Stations météo

Publicité
Boulogne, France (7002): Température de l'air & dewpoint: 14.07.2018 01:00:00 - 20.07.2018 01:00:00 (CEST)Boulogne, France (7002): Vitesse du vent & gusts: 14.07.2018 01:00:00 - 20.07.2018 01:00:00 (CEST)Boulogne, France (7002): Direction du vent: 14.07.2018 01:00:00 - 20.07.2018 01:00:00 (CEST)Boulogne, France (7002): reduced air pressure: 14.07.2018 01:00:00 - 20.07.2018 01:00:00 (CEST)Boulogne, France (7002): visibility: 14.07.2018 01:00:00 - 20.07.2018 01:00:00 (CEST)Boulogne, France (7002): Quantités de précipitations: 14.07.2018 01:00:00 - 20.07.2018 01:00:00 (CEST)
Date & Time tt [°C] td [°C] ff [km/h] ff [knt] fx [km/h] fx [knt] dd ppp [hPa] vv [km] rr [mm]
20.07.2018 01:00:00 19,7 7,4 24 13 39 21 E 1016,6 - -
20.07.2018 00:00:00 19,2 9,7 22 12 37 20 E 1016,7 - 0,0
19.07.2018 23:00:00 19,9 10,0 26 14 40 22 ENE 1016,8 12 0,0
19.07.2018 22:00:00 20,9 9,2 25 13 37 20 ENE 1016,7 - 0,0
19.07.2018 21:00:00 22,3 7,7 24 13 38 21 ENE 1016,8 - 0,0
19.07.2018 20:00:00 23,5 7,1 22 12 36 19 ENE 1016,8 16 0,0
19.07.2018 19:00:00 24,3 9,1 20 11 38 20 ENE 1016,8 - 0,0
19.07.2018 18:00:00 25,1 10,2 17 9 35 19 ENE 1017,0 - 0,0
19.07.2018 17:00:00 25,7 12,2 13 7 33 18 NE 1017,7 16 0,0
19.07.2018 16:00:00 26,1 11,8 14 7 26 14 NE 1017,8 - 0,0
19.07.2018 15:00:00 25,7 11,1 6 4 29 16 WNW 1018,1 - 0,0
19.07.2018 14:00:00 26,1 9,9 9 5 24 13 E 1018,5 14 0,0
19.07.2018 13:00:00 24,4 9,9 11 6 23 13 NE 1018,8 - 0,0
19.07.2018 12:00:00 23,1 11,2 9 5 18 10 E 1019,1 - 0,0
19.07.2018 11:00:00 23,1 10,5 9 5 21 11 E 1019,1 18 0,0
19.07.2018 10:00:00 21,8 11,5 10 5 16 9 ENE 1019,1 - 0,0
19.07.2018 09:00:00 20,5 12,5 9 5 19 10 E 1019,1 - 0,0
19.07.2018 08:00:00 18,1 12,3 6 3 16 9 ESE 1019,2 12 0,0
19.07.2018 07:00:00 15,9 12,5 7 4 16 8 E 1019,0 - 0,0
19.07.2018 06:00:00 15,5 12,4 7 4 14 8 E 1019,2 - 0,0
19.07.2018 05:00:00 15,8 12,2 5 3 9 5 E 1019,3 12 0,0
19.07.2018 04:00:00 16,2 12,7 6 4 23 12 SE 1019,4 - 0,0
19.07.2018 03:00:00 16,7 12,8 11 6 27 14 E 1019,4 - 0,0
19.07.2018 02:00:00 16,9 10,7 15 8 27 15 E 1019,3 - 0,0
19.07.2018 01:00:00 16,8 10,9 17 9 28 15 E 1019,3 - 0,0
19.07.2018 00:00:00 17,3 10,4 13 7 22 12 E 1019,2 - 0,0
18.07.2018 23:00:00 17,6 11,8 8 5 14 7 NNE 1019,4 12 0,0
18.07.2018 22:00:00 17,3 12,4 5 3 10 6 N 1019,1 - 0,0
18.07.2018 21:00:00 18,7 10,8 5 3 10 6 NW 1019,0 - 0,0
18.07.2018 20:00:00 19,7 11,5 5 3 13 7 NW 1019,0 - 0,0
18.07.2018 19:00:00 19,7 12,7 6 3 16 8 NW 1018,9 - 0,0
18.07.2018 18:00:00 20,4 12,9 9 5 16 9 NW 1019,2 - 0,0
18.07.2018 17:00:00 20,6 11,2 8 4 18 10 WNW 1019,3 25 0,0
18.07.2018 16:00:00 20,7 12,9 11 6 20 11 WSW 1019,4 - 0,0
18.07.2018 15:00:00 19,9 13,6 12 7 22 12 W 1019,5 - 0,0
18.07.2018 14:00:00 19,8 14,4 14 7 24 13 W 1019,7 - 0,0
18.07.2018 13:00:00 18,7 14,2 13 7 20 11 W 1019,6 - 0,0
18.07.2018 12:00:00 17,9 14,8 11 6 21 11 W 1019,8 - 0,0
18.07.2018 11:00:00 17,8 15,1 11 6 21 11 WSW 1019,7 25 0,0
18.07.2018 10:00:00 17,5 14,4 11 6 19 10 SW 1019,8 - 0,0
18.07.2018 09:00:00 16,7 14,9 15 8 23 12 SW 1019,5 - 0,0
18.07.2018 08:00:00 16,5 14,5 8 5 25 14 WSW 1019,1 14 0,0
18.07.2018 07:00:00 15,9 14,3 16 9 23 13 SW 1018,8 - 0,0
18.07.2018 06:00:00 15,4 13,8 8 4 21 11 SSW 1018,7 - 0,0
18.07.2018 05:00:00 15,8 14,0 13 7 23 12 WSW 1018,5 10 0,0
18.07.2018 04:00:00 16,0 13,7 15 8 23 12 WSW 1018,6 - 0,0
18.07.2018 03:00:00 16,0 13,3 9 5 20 11 SW 1018,7 - 0,0
18.07.2018 02:00:00 16,2 13,1 11 6 26 14 W 1018,7 - 0,0
18.07.2018 01:00:00 15,9 13,2 8 4 18 10 SW 1018,8 - 0,0
18.07.2018 00:00:00 16,2 13,3 13 7 21 12 SW 1018,8 - 0,0
17.07.2018 23:00:00 16,4 13,1 14 8 27 15 SW 1018,6 15 0,0
17.07.2018 22:00:00 16,7 13,0 16 9 26 14 WSW 1018,4 - 0,0
17.07.2018 21:00:00 17,2 13,7 15 8 30 16 WSW 1018,2 - 0,0
17.07.2018 20:00:00 17,9 13,6 21 11 34 18 SW 1017,9 - 0,0
17.07.2018 19:00:00 18,6 13,2 22 12 40 22 WSW 1018,0 - 0,0
17.07.2018 18:00:00 18,8 13,2 24 13 45 25 WSW 1018,0 - 0,0
17.07.2018 17:00:00 18,6 13,0 29 16 42 23 WSW 1018,1 15 0,0
17.07.2018 16:00:00 18,4 13,0 31 17 44 24 WSW 1018,2 - 0,0
17.07.2018 15:00:00 18,5 14,2 29 16 44 24 WSW 1018,2 - 0,0
17.07.2018 14:00:00 18,2 13,7 30 16 41 22 SW 1018,0 - 0,0
17.07.2018 13:00:00 18,4 13,9 26 14 39 21 WSW 1018,0 - 0,0
17.07.2018 12:00:00 17,9 13,2 24 13 43 23 WSW 1017,5 - 0,0
17.07.2018 11:00:00 17,7 13,6 24 13 43 23 WSW 1017,2 - 0,0
17.07.2018 10:00:00 16,7 11,8 22 12 36 19 W 1016,9 - 0,0
17.07.2018 09:00:00 16,2 12,2 25 13 36 19 W 1016,5 - 0,0
17.07.2018 08:00:00 16,5 12,3 18 10 31 17 WSW 1015,9 15 0,0
17.07.2018 07:00:00 16,8 12,5 16 9 27 15 WSW 1015,4 - 0,0
17.07.2018 06:00:00 17,5 12,8 16 9 28 15 W 1014,7 - 0,0
17.07.2018 05:00:00 16,4 16,1 16 9 34 18 WSW 1014,7 8 0,0
17.07.2018 04:00:00 16,4 15,9 24 13 39 21 WSW 1014,6 - 0,0
17.07.2018 03:00:00 16,9 16,1 30 16 40 22 SW 1014,7 - 0,0
17.07.2018 02:00:00 17,1 15,8 19 11 32 17 SW 1014,7 15 0,0
17.07.2018 01:00:00 17,3 14,4 17 9 29 16 SSW 1014,7 - 0,0
17.07.2018 00:00:00 17,7 14,2 17 9 27 15 SW 1014,7 - 0,0
16.07.2018 23:00:00 18,2 13,9 18 10 29 16 SW 1014,7 - 0,0
16.07.2018 22:00:00 18,8 12,8 20 11 34 19 SW 1014,1 - 0,0
16.07.2018 21:00:00 18,7 13,3 21 11 32 17 WSW 1013,7 - 0,0
16.07.2018 20:00:00 19,3 13,9 18 10 29 15 WSW 1013,4 15 0,0
16.07.2018 19:00:00 20,4 14,3 16 9 28 15 SW 1013,3 - 0,0
16.07.2018 18:00:00 20,6 14,3 20 11 30 16 SW 1013,4 - 0,0
16.07.2018 17:00:00 21,0 14,6 18 10 25 14 WSW 1013,3 10 0,0
16.07.2018 16:00:00 20,4 15,6 15 8 24 13 SW 1013,8 - 0,0
16.07.2018 15:00:00 20,6 16,2 18 10 26 14 SW 1013,8 - 0,0
16.07.2018 14:00:00 21,8 13,4 15 8 25 13 SW 1013,8 10 0,0
16.07.2018 13:00:00 22,4 13,2 13 7 19 10 SW 1013,9 - 0,0
16.07.2018 12:00:00 20,4 14,7 9 5 21 11 WSW 1014,0 - 0,0
16.07.2018 11:00:00 19,7 16,2 10 5 17 9 W 1013,8 10 0,0
16.07.2018 10:00:00 20,0 16,4 4 2 18 10 SW 1013,7 - 0,0
16.07.2018 09:00:00 19,5 13,7 4 2 12 6 W 1013,9 - 0,0
16.07.2018 08:00:00 18,3 12,5 9 5 16 8 SSE 1013,6 - 0,0
16.07.2018 07:00:00 17,9 12,3 5 3 10 5 ENE 1013,7 - 0,0
16.07.2018 06:00:00 17,5 13,0 5 3 7 4 ENE 1013,8 - 0,0
16.07.2018 05:00:00 18,0 12,2 3 2 7 4 N 1014,1 15 0,0
16.07.2018 04:00:00 17,5 13,2 6 3 10 5 SE 1014,5 - 0,0
16.07.2018 03:00:00 17,8 13,3 5 3 8 4 SW 1014,9 - 0,0
16.07.2018 02:00:00 18,2 13,1 5 3 10 5 SSW 1015,2 - 0,0
16.07.2018 01:00:00 18,4 12,4 5 3 8 5 WSW 1015,3 - 0,0
16.07.2018 00:00:00 18,1 12,5 3 1 8 4 WSW 1015,4 - 0,0
15.07.2018 23:00:00 18,5 13,1 5 3 9 5 WNW 1015,3 15 0,0
15.07.2018 22:00:00 19,1 13,7 5 3 10 5 NNW 1015,2 - 0,0
15.07.2018 21:00:00 19,5 13,7 5 3 14 8 NW 1014,9 - 0,0
15.07.2018 20:00:00 20,7 15,7 8 4 14 8 NW 1014,7 20 0,0
15.07.2018 19:00:00 21,6 14,5 10 5 16 8 NNW 1014,8 - 0,0
15.07.2018 18:00:00 22,7 16,0 7 4 18 10 NW 1015,0 - 0,0
15.07.2018 17:00:00 22,2 14,3 9 5 18 10 NW 1015,4 - 0,0
15.07.2018 16:00:00 22,9 13,1 9 5 18 10 NW 1015,7 - 0,0
15.07.2018 15:00:00 22,3 12,5 10 5 17 9 NW 1015,9 - 0,0
15.07.2018 14:00:00 23,0 12,9 7 4 16 8 WNW 1016,3 20 0,0
15.07.2018 13:00:00 23,5 12,5 8 4 13 7 WNW 1016,6 - 0,0
15.07.2018 12:00:00 23,9 13,4 6 3 11 6 NW 1016,9 - 0,0
15.07.2018 11:00:00 22,1 13,2 5 3 12 7 NW 1017,0 20 0,0
15.07.2018 10:00:00 22,1 14,0 3 2 7 4 W 1017,0 - 0,0
15.07.2018 09:00:00 21,2 13,4 3 2 6 3 WSW 1017,2 - 0,0
15.07.2018 08:00:00 20,8 13,2 3 2 9 5 E 1017,2 20 0,0
15.07.2018 07:00:00 18,5 12,7 4 2 8 4 ENE 1016,9 - 0,0
15.07.2018 06:00:00 17,6 12,7 5 3 8 4 ENE 1017,0 - 0,0
15.07.2018 05:00:00 17,5 12,8 4 2 8 5 N 1017,3 - 0,0
15.07.2018 04:00:00 17,8 14,3 6 3 14 7 W 1017,7 - 0,0
15.07.2018 03:00:00 18,9 12,4 6 4 18 10 SE 1017,8 - 0,0
15.07.2018 02:00:00 19,1 11,9 10 5 24 13 ESE 1018,0 20 0,0
15.07.2018 01:00:00 19,6 11,9 10 6 23 12 E 1018,1 - 0,0
15.07.2018 00:00:00 19,0 13,4 15 8 32 17 E 1018,2 - 0,0
14.07.2018 23:00:00 19,5 13,9 19 11 29 16 E 1018,2 20 0,0
14.07.2018 22:00:00 20,7 13,4 18 10 26 14 ENE 1018,2 - 0,0
14.07.2018 21:00:00 22,1 12,6 14 7 21 11 ENE 1018,2 - 0,0
14.07.2018 20:00:00 23,4 13,3 10 5 24 13 NE 1018,2 - 0,0
14.07.2018 19:00:00 24,3 12,9 13 7 31 17 N 1018,6 - 0,0
14.07.2018 18:00:00 23,8 16,3 15 8 26 14 NNW 1018,8 - 0,0
14.07.2018 17:00:00 25,1 14,2 13 7 32 17 N 1018,9 25 0,0
14.07.2018 16:00:00 23,7 16,2 16 9 33 18 NNW 1019,3 - 0,0
14.07.2018 15:00:00 22,7 15,3 23 13 37 20 N 1019,6 - 0,0
14.07.2018 14:00:00 22,0 15,6 19 11 37 20 NNW 1020,0 25 0,0
14.07.2018 13:00:00 21,2 16,4 17 9 26 14 NNW 1020,4 - 0,0
14.07.2018 12:00:00 21,4 15,0 10 6 20 11 NNW 1020,8 - 0,0
14.07.2018 11:00:00 21,5 14,2 4 2 22 12 NNE 1021,3 25 0,0
14.07.2018 10:00:00 19,8 14,4 10 5 21 11 E 1021,3 - 0,0
14.07.2018 09:00:00 17,8 14,1 8 4 18 10 NE 1021,5 - 0,0
14.07.2018 08:00:00 16,5 13,4 10 5 23 12 ENE 1021,3 9 0,0
14.07.2018 07:00:00 14,8 13,3 6 3 18 10 ENE 1021,2 - 0,0
14.07.2018 06:00:00 14,5 13,2 9 5 22 12 E 1021,1 - 0,0
14.07.2018 05:00:00 14,4 13,1 9 5 15 8 ENE 1021,5 12 0,0
14.07.2018 04:00:00 14,5 13,2 8 4 19 10 NE 1021,5 - 0,0
14.07.2018 03:00:00 14,5 13,0 7 4 19 10 ENE 1021,8 - 0,0
14.07.2018 02:00:00 14,6 13,1 8 4 20 11 NE 1021,9 - 0,0
14.07.2018 01:00:00 14,8 13,2 6 3 21 12 NE 1022,1 - 0,0

tt = Température de l'air
td = dewpoint
ff = Vitesse du vent
fx = gusts
dd = Direction du vent
ppp = reduced air pressure
vv = visibility
rr = Quantités de précipitations

stations d'obs. à proximité